Weather History for Melbourne Airport, VC

Change the Weather History Date:

Tuesday, April 23, 2013

  Actual Average Record
Temperature  
Mean Temperature 58 °F -  
Max Temperature 65 °F 61 °F 80 °F (1997)
Min Temperature 50 °F 46 °F 35 °F (1999)
Degree Days  
Heating Degree Days 8    
Growing Degree Days 8 (Base 50)    
Moisture  
Dew Point 47 °F    
Average Humidity 66    
Maximum Humidity 94    
Minimum Humidity 27    
Precipitation  
Precipitation 0.00 in 0.06 in - ()
Sea Level Pressure  
Sea Level Pressure 29.95 in    
Wind  
Wind Speed 11 mph ()    
Max Wind Speed 20 mph    
Max Gust Speed -    
Visibility 7.7 miles    
Events Rain    
Averages and records for this station are not official NWS values.
T = Trace of Precipitation, MM = Missing Value Source: Averaged Metar Reports

Daily Weather History Graph

Daily Weather History Graph

Search for Another Location

Airport:

Trip Planner

Search our weather history database for the weather conditions in past years. The results will help you decide how hot, cold, wet, or windy it might be!

Date:

Astronomy

Apr. 23, 2013 Rise Set
Actual Time 6:54 AM EST 5:43 PM EST
Civil Twilight 6:27 AM EST 6:10 PM EST
Nautical Twilight 5:56 AM EST 6:41 PM EST
Astronomical Twilight 5:26 AM EST 7:11 PM EST
Moon 3:56 PM EST (4/23) 3:43 AM EST (4/23)
Length of Visible Light 11h 43m
Length of Day
10h 49m
Waxing Gibbous, 90% of the Moon is Illuminated
Apr 23
Waxing Gibbous
Apr 26
Full
May 2
Last Quarter
May 10
New
May 18
First Quarter

Hourly Weather History & Observations

Time (EST) Temp. Dew Point Humidity Pressure Visibility Wind Dir Wind Speed Gust Speed Precip Events Conditions
12:00 AM 58 °F 51 °F 69% 29.78 in 19 mi North 17.3 mph - -   Partly Cloudy
12:00 AM 59.0 °F 50.0 °F 72% 29.77 in - North 17.3 mph - N/A   Clear
12:30 AM 59.0 °F 50.0 °F 72% 29.77 in 6.2 mi North 15.0 mph - N/A   Mostly Cloudy
1:00 AM 60 °F 51 °F 65% 29.79 in - NNW 9.2 mph - -  
1:00 AM 60.8 °F 51.8 °F 72% 29.77 in 6.2 mi NNW 9.2 mph - N/A Rain Light Rain
1:24 AM 59.0 °F 53.6 °F 82% 29.80 in 1.9 mi NNW 11.5 mph - N/A Rain Rain Showers
1:30 AM 57.2 °F 53.6 °F 88% 29.80 in 5.0 mi WSW 19.6 mph - N/A Rain Light Rain Showers
2:00 AM 55.4 °F 53.6 °F 94% 29.83 in 6.2 mi West 8.1 mph - N/A   Mostly Cloudy
2:30 AM 57.2 °F 53.6 °F 88% 29.83 in 6.2 mi West 12.7 mph - N/A   Mostly Cloudy
3:00 AM 56 °F 53 °F 84% 29.84 in 19 mi West 10.4 mph - -   Partly Cloudy
3:00 AM 55.4 °F 51.8 °F 88% 29.83 in 6.2 mi West 10.4 mph - N/A   Mostly Cloudy
3:30 AM 55.4 °F 51.8 °F 88% 29.83 in 6.2 mi WSW 12.7 mph - N/A   Mostly Cloudy
4:00 AM 55 °F 52 °F 86% 29.86 in - WSW 12.7 mph - -  
4:00 AM 55.4 °F 51.8 °F 88% 29.86 in 6.2 mi WSW 12.7 mph - N/A   Mostly Cloudy
4:30 AM 53.6 °F 51.8 °F 94% 29.86 in - West 11.5 mph - N/A   Clear
5:00 AM 53.6 °F 51.8 °F 94% 29.89 in 6.2 mi West 12.7 mph - N/A   Partly Cloudy
5:30 AM 53.6 °F 50.0 °F 88% 29.89 in - West 11.5 mph - N/A   Unknown
6:00 AM 52 °F 49 °F 86% 29.91 in 12 mi West 10.4 mph - -   Haze
6:00 AM 51.8 °F 50.0 °F 94% 29.89 in - West 10.4 mph - N/A   Clear
6:30 AM 51.8 °F 48.2 °F 88% 29.89 in - West 10.4 mph - N/A   Clear
7:00 AM 51 °F 48 °F 85% 29.93 in - West 11.5 mph - -  
7:00 AM 51.8 °F 48.2 °F 88% 29.92 in 6.2 mi West 11.5 mph - N/A   Partly Cloudy
7:30 AM 51.8 °F 48.2 °F 88% 29.92 in 6.2 mi West 9.2 mph - N/A   Partly Cloudy
8:00 AM 53.6 °F 50.0 °F 88% 29.95 in 6.2 mi West 9.2 mph - N/A   Scattered Clouds
8:30 AM 55.4 °F 50.0 °F 82% 29.95 in 6.2 mi West 10.4 mph - N/A   Partly Cloudy
9:00 AM 56 °F 48 °F 68% 29.97 in 19 mi WSW 13.8 mph - -   Partly Cloudy
9:00 AM 55.4 °F 48.2 °F 77% 29.95 in 6.2 mi WSW 13.8 mph - N/A   Partly Cloudy
9:30 AM 59.0 °F 48.2 °F 67% 29.98 in 6.2 mi WSW 12.7 mph - N/A   Partly Cloudy
10:00 AM 59 °F 47 °F 55% 29.98 in - WSW 13.8 mph - -  
10:00 AM 59.0 °F 46.4 °F 63% 29.98 in 6.2 mi WSW 13.8 mph - N/A   Partly Cloudy
10:30 AM 60.8 °F 46.4 °F 59% 29.98 in 6.2 mi WSW 12.7 mph - N/A   Scattered Clouds
11:00 AM 60.8 °F 44.6 °F 55% 29.98 in 6.2 mi WSW 11.5 mph - N/A   Mostly Cloudy
11:30 AM 62.6 °F 44.6 °F 52% 29.98 in 6.2 mi WSW 11.5 mph - N/A   Mostly Cloudy
12:00 PM 63 °F 44 °F 38% 29.99 in 19 mi WSW 11.5 mph - -   Partly Cloudy
12:00 PM 62.6 °F 44.6 °F 52% 29.98 in 6.2 mi WSW 11.5 mph - N/A   Scattered Clouds
12:30 PM 62.6 °F 42.8 °F 48% 29.98 in 6.2 mi SW 11.5 mph - N/A   Scattered Clouds
1:00 PM 62 °F 46 °F 44% 29.98 in - WSW 17.3 mph - -  
1:00 PM 62.6 °F 46.4 °F 55% 29.98 in 6.2 mi WSW 17.3 mph - N/A   Mostly Cloudy
1:30 PM 62.6 °F 42.8 °F 48% 29.95 in 6.2 mi WSW 10.4 mph - N/A   Mostly Cloudy
2:00 PM 64.4 °F 41.0 °F 42% 29.95 in 6.2 mi West 12.7 mph - N/A   Mostly Cloudy
2:30 PM 64.4 °F 39.2 °F 40% 29.95 in 6.2 mi West 12.7 mph - N/A   Mostly Cloudy
3:00 PM 65 °F 39 °F 27% 29.97 in 25 mi WSW 16.1 mph - -   Partly Cloudy
3:00 PM 64.4 °F 39.2 °F 40% 29.98 in 6.2 mi WSW 16.1 mph - N/A   Mostly Cloudy
3:30 PM 62.6 °F 39.2 °F 42% 29.98 in - WSW 11.5 mph - N/A   Clear
4:00 PM 62 °F 39 °F 31% 29.99 in - SW 16.1 mph - -  
4:00 PM 62.6 °F 39.2 °F 42% 29.98 in - SW 16.1 mph - N/A   Clear
4:30 PM 60.8 °F 42.8 °F 52% 29.98 in - WSW 13.8 mph - N/A   Clear
5:00 PM 60.8 °F 39.2 °F 45% 29.98 in 6.2 mi SW 16.1 mph - N/A   Mostly Cloudy
5:30 PM 60.8 °F 41.0 °F 48% 30.01 in 6.2 mi SW 11.5 mph - N/A   Mostly Cloudy
6:00 PM 59 °F 42 °F 42% 30.01 in 25 mi WSW 8.1 mph - -   Partly Cloudy
6:00 PM 59.0 °F 42.8 °F 55% 30.01 in - WSW 8.1 mph - N/A   Clear
6:30 PM 59.0 °F 41.0 °F 51% 30.01 in - SSW 11.5 mph - N/A   Clear
7:00 PM 58 °F 43 °F 46% 30.04 in - WSW 6.9 mph - -  
7:00 PM 57.2 °F 42.8 °F 59% 30.04 in - WSW 6.9 mph - N/A   Clear
7:30 PM 57.2 °F 44.6 °F 63% 30.04 in - WSW 8.1 mph - N/A   Clear
8:00 PM 57.2 °F 44.6 °F 63% 30.04 in - West 8.1 mph - N/A   Clear
8:30 PM 55.4 °F 46.4 °F 72% 30.06 in - West 6.9 mph - N/A   Clear
9:00 PM 55 °F 46 °F 62% 30.07 in 25 mi WNW 6.9 mph - -   Partly Cloudy
9:00 PM 55.4 °F 46.4 °F 72% 30.06 in - WNW 6.9 mph - N/A   Clear
9:30 PM 55.4 °F 46.4 °F 72% 30.06 in - West 6.9 mph - N/A   Clear
10:00 PM 55 °F 46 °F 62% 30.08 in - West 6.9 mph - -  
10:00 PM 55.4 °F 46.4 °F 72% 30.06 in 6.2 mi West 6.9 mph - N/A   Mostly Cloudy
10:30 PM 55.4 °F 44.6 °F 67% 30.06 in - West 8.1 mph - N/A   Clear
11:00 PM 55.4 °F 44.6 °F 67% 30.06 in - West 8.1 mph - N/A   Clear
11:30 PM 55.4 °F 46.4 °F 72% 30.06 in - West 6.9 mph - N/A   Clear